TimeMDT,TemperatureF,Dew PointF,Humidity,Sea Level PressureIn,VisibilityMPH,Wind Direction,Wind SpeedMPH,Gust SpeedMPH,PrecipitationIn,Events,Conditions,WindDirDegrees,DateUTC
12:53 AM,72.0,32.0,23,29.69,10.0,SE,9.2,-,N/A,,Scattered Clouds,130,2013-06-11 06:53:00
1:53 AM,68.0,33.1,27,29.68,10.0,West,5.8,-,N/A,,Partly Cloudy,280,2013-06-11 07:53:00
2:53 AM,66.0,33.1,29,29.72,10.0,Calm,Calm,-,N/A,,Partly Cloudy,0,2013-06-11 08:53:00
3:53 AM,69.1,33.1,26,29.69,10.0,South,4.6,-,N/A,,Partly Cloudy,180,2013-06-11 09:53:00
4:53 AM,66.0,32.0,28,29.71,10.0,SW,8.1,-,N/A,,Partly Cloudy,220,2013-06-11 10:53:00
5:53 AM,64.9,30.9,28,29.73,10.0,SW,6.9,-,N/A,,Partly Cloudy,230,2013-06-11 11:53:00
6:53 AM,73.9,30.0,20,29.73,10.0,SW,9.2,-,N/A,,Partly Cloudy,230,2013-06-11 12:53:00
7:53 AM,79.0,33.1,19,29.72,10.0,SSW,10.4,-,N/A,,Partly Cloudy,200,2013-06-11 13:53:00
8:53 AM,84.0,30.9,15,29.71,10.0,South,10.4,-,N/A,,Partly Cloudy,180,2013-06-11 14:53:00
9:53 AM,89.1,26.1,10,29.68,10.0,South,13.8,20.7,N/A,,Scattered Clouds,170,2013-06-11 15:53:00
10:53 AM,91.9,21.0,8,29.65,10.0,SW,16.1,26.5,N/A,,Scattered Clouds,230,2013-06-11 16:53:00
11:53 AM,95.0,15.1,5,29.63,10.0,SSW,19.6,32.2,N/A,,Scattered Clouds,210,2013-06-11 17:53:00
12:53 PM,96.1,14.0,5,29.62,10.0,SSW,24.2,36.8,N/A,,Scattered Clouds,200,2013-06-11 18:53:00
1:53 PM,96.1,10.9,4,29.61,10.0,SW,16.1,28.8,N/A,,Scattered Clouds,220,2013-06-11 19:53:00
2:23 PM,96.8,10.4,4,29.89,10.0,SSW,20.7,25.3,N/A,,Scattered Clouds,200,2013-06-11 20:23:00
2:53 PM,96.1,7.0,4,29.59,10.0,WSW,18.4,26.5,N/A,,Scattered Clouds,250,2013-06-11 20:53:00
3:53 PM,97.0,5.0,4,29.58,10.0,West,24.2,35.7,N/A,,Scattered Clouds,260,2013-06-11 21:53:00
4:53 PM,96.1,10.0,4,29.59,10.0,SW,25.3,35.7,N/A,,Scattered Clouds,230,2013-06-11 22:53:00
5:53 PM,93.0,10.9,5,29.61,10.0,West,13.8,-,N/A,,Scattered Clouds,270,2013-06-11 23:53:00
6:53 PM,91.0,10.9,5,29.61,10.0,West,11.5,23.0,N/A,,Scattered Clouds,280,2013-06-12 00:53:00
7:53 PM,87.1,12.9,6,29.65,10.0,West,16.1,25.3,N/A,,Scattered Clouds,260,2013-06-12 01:53:00
8:53 PM,81.0,17.1,9,29.69,10.0,WNW,8.1,-,N/A,,Scattered Clouds,290,2013-06-12 02:53:00
9:53 PM,79.0,19.9,11,29.73,10.0,West,9.2,-,N/A,,Scattered Clouds,270,2013-06-12 03:53:00
10:53 PM,70.0,23.0,17,29.78,10.0,West,5.8,-,N/A,,Scattered Clouds,270,2013-06-12 04:53:00
11:53 PM,73.9,24.1,16,29.78,10.0,Calm,Calm,-,N/A,,Partly Cloudy,0,2013-06-12 05:53:00